CFG6DP EDDF-LGKR

Flight info

Callsign CFG6DP
Flight time 1h 58m
Altitude 35000
Route CINDY2D CINDY Z74 LAMPU DCT NOMBO Y161 MAH DCT VAVOR DCT RADIZ DCT NERRA DCT KOFER DCT RODON DCT LIMJA N732 PITAS PITAS2P
Aircraft A321/M-SDE3FGHIJ1LORVWXYZ/LB1D1

Departure

Time 2026-05-08 05:38
Airport Frankfurt Main Airport (EDDF)

Arrival

Time 2026-05-08 07:37
Airport Corfu Ioannis Kapodistrias International Airport (LGKR)
Time Latitude Longitude Altitude Speed Heading
2026-05-08 05:13 50.05003 8.57423 356 ft 0 kts 74°
2026-05-08 05:31 50.05004 8.57425 348 ft 2 kts 74°
2026-05-08 05:31 50.04985 8.57442 347 ft 8 kts 162°
2026-05-08 05:32 50.04928 8.57557 360 ft 20 kts 113°
2026-05-08 05:32 50.04865 8.57776 359 ft 24 kts 114°
2026-05-08 05:32 50.04763 8.57923 360 ft 20 kts 174°
2026-05-08 05:32 50.04676 8.57773 359 ft 22 kts 249°
2026-05-08 05:33 50.04620 8.57538 359 ft 23 kts 250°
2026-05-08 05:33 50.04566 8.57305 359 ft 23 kts 249°
2026-05-08 05:33 50.04502 8.57042 361 ft 29 kts 249°
2026-05-08 05:33 50.04433 8.56747 365 ft 28 kts 249°
2026-05-08 05:34 50.04366 8.56467 360 ft 27 kts 249°
2026-05-08 05:34 50.04301 8.56194 357 ft 27 kts 251°
2026-05-08 05:34 50.04238 8.55928 358 ft 26 kts 249°
2026-05-08 05:34 50.04176 8.55671 356 ft 25 kts 250°
2026-05-08 05:35 50.04115 8.55421 356 ft 24 kts 249°
2026-05-08 05:35 50.04060 8.55190 356 ft 22 kts 249°
2026-05-08 05:35 50.04008 8.54970 361 ft 22 kts 250°
2026-05-08 05:35 50.03946 8.54712 354 ft 30 kts 250°
2026-05-08 05:36 50.03867 8.54383 352 ft 35 kts 246°
2026-05-08 05:36 50.03757 8.54036 355 ft 35 kts 247°
2026-05-08 05:36 50.03674 8.53697 345 ft 30 kts 249°
2026-05-08 05:36 50.03603 8.53397 336 ft 29 kts 251°
2026-05-08 05:37 50.03532 8.53104 334 ft 29 kts 249°
2026-05-08 05:37 50.03461 8.52819 333 ft 28 kts 249°
2026-05-08 05:37 50.03352 8.52600 334 ft 26 kts 189°
2026-05-08 05:37 50.03136 8.52597 335 ft 49 kts 179°
2026-05-08 05:38 50.02552 8.52602 333 ft 116 kts 180°
2026-05-08 05:38 50.01564 8.52610 333 ft 166 kts 179°
2026-05-08 05:38 50.00338 8.52622 728 ft 176 kts 178°
2026-05-08 05:38 49.99127 8.52658 1406 ft 177 kts 177°
2026-05-08 05:39 49.97837 8.52755 1682 ft 196 kts 176°
2026-05-08 05:39 49.96394 8.52872 1819 ft 215 kts 176°
2026-05-08 05:39 49.94868 8.53003 2148 ft 228 kts 173°
2026-05-08 05:39 49.93298 8.53848 2411 ft 249 kts 142°
2026-05-08 05:40 49.92221 8.55933 3006 ft 257 kts 112°
2026-05-08 05:40 49.91607 8.58565 3766 ft 261 kts 111°
2026-05-08 05:40 49.90911 8.61189 4565 ft 265 kts 113°
2026-05-08 05:40 49.90162 8.63814 5348 ft 268 kts 114°
2026-05-08 05:41 49.89389 8.66469 6085 ft 272 kts 114°
2026-05-08 05:41 49.88606 8.69166 6798 ft 277 kts 114°
2026-05-08 05:41 49.87821 8.71916 7496 ft 280 kts 114°
2026-05-08 05:41 49.87032 8.74699 8209 ft 284 kts 114°
2026-05-08 05:42 49.86237 8.77526 8910 ft 288 kts 114°
2026-05-08 05:42 49.85438 8.80387 9619 ft 291 kts 114°
2026-05-08 05:42 49.84633 8.83289 10270 ft 295 kts 114°
2026-05-08 05:42 49.83797 8.86295 10512 ft 315 kts 114°
2026-05-08 05:43 49.82896 8.89519 10639 ft 337 kts 114°
2026-05-08 05:43 49.81943 8.92917 11006 ft 348 kts 114°
2026-05-08 05:43 49.80971 8.96382 11596 ft 353 kts 114°
2026-05-08 05:43 49.79992 8.99877 12230 ft 356 kts 114°
2026-05-08 05:44 49.79000 9.03416 12874 ft 359 kts 114°
2026-05-08 05:44 49.78013 9.06932 13514 ft 363 kts 114°
2026-05-08 05:44 49.77000 9.10520 14102 ft 366 kts 114°
2026-05-08 05:44 49.75976 9.14145 14664 ft 370 kts 114°
2026-05-08 05:45 49.74876 9.17754 15209 ft 373 kts 120°
2026-05-08 05:45 49.73396 9.21057 15748 ft 375 kts 131°
2026-05-08 05:45 49.71672 9.24110 16292 ft 379 kts 132°
2026-05-08 05:45 49.69929 9.27179 16833 ft 382 kts 133°
2026-05-08 05:46 49.68169 9.30277 17367 ft 386 kts 133°
2026-05-08 05:46 49.66392 9.33403 17886 ft 389 kts 133°
2026-05-08 05:46 49.64597 9.36559 18380 ft 393 kts 133°
2026-05-08 05:46 49.62765 9.39714 18834 ft 396 kts 136°
2026-05-08 05:47 49.60664 9.42450 19276 ft 396 kts 147°
2026-05-08 05:47 49.58310 9.44677 19727 ft 398 kts 151°
2026-05-08 05:47 49.55921 9.46852 20173 ft 400 kts 151°
2026-05-08 05:47 49.53519 9.49044 20624 ft 403 kts 151°
2026-05-08 05:48 49.51098 9.51256 21065 ft 406 kts 151°
2026-05-08 05:48 49.48665 9.53477 21501 ft 408 kts 151°
2026-05-08 05:48 49.46246 9.55683 21960 ft 411 kts 151°
2026-05-08 05:48 49.43783 9.57925 22402 ft 413 kts 151°
2026-05-08 05:49 49.41302 9.60180 22834 ft 416 kts 152°
2026-05-08 05:49 49.38806 9.62447 23251 ft 418 kts 152°
2026-05-08 05:49 49.36289 9.64729 23662 ft 421 kts 152°
2026-05-08 05:49 49.33854 9.67245 24003 ft 425 kts 143°
2026-05-08 05:50 49.31678 9.70346 24347 ft 429 kts 136°
2026-05-08 05:50 49.29562 9.73600 24701 ft 432 kts 137°
2026-05-08 05:50 49.27434 9.76856 25042 ft 434 kts 137°
2026-05-08 05:50 49.25293 9.80124 25393 ft 436 kts 137°
2026-05-08 05:51 49.23136 9.83403 25732 ft 438 kts 137°
2026-05-08 05:51 49.20965 9.86701 26053 ft 440 kts 137°
2026-05-08 05:51 49.18790 9.90005 26385 ft 443 kts 137°
2026-05-08 05:51 49.16599 9.93331 26710 ft 445 kts 137°
2026-05-08 05:52 49.14399 9.96665 27025 ft 447 kts 137°
2026-05-08 05:52 49.12185 10.00018 27342 ft 449 kts 137°
2026-05-08 05:52 49.09960 10.03382 27645 ft 451 kts 137°
2026-05-08 05:52 49.07724 10.06756 27947 ft 454 kts 137°
2026-05-08 05:53 49.05468 10.10143 28234 ft 456 kts 138°
2026-05-08 05:53 49.03170 10.13489 28536 ft 457 kts 139°
2026-05-08 05:53 49.00866 10.16751 28826 ft 459 kts 140°
2026-05-08 05:53 48.98507 10.20035 29097 ft 461 kts 140°
2026-05-08 05:54 48.96129 10.23329 29381 ft 463 kts 140°
2026-05-08 05:54 48.93741 10.26643 29657 ft 465 kts 140°
2026-05-08 05:54 48.91352 10.29985 29934 ft 468 kts 140°
2026-05-08 05:54 48.88962 10.33350 30195 ft 470 kts 140°
2026-05-08 05:55 48.86565 10.36733 30500 ft 470 kts 140°
2026-05-08 05:55 48.84172 10.40109 30844 ft 469 kts 140°
2026-05-08 05:55 48.81806 10.43504 31168 ft 469 kts 139°
2026-05-08 05:55 48.79507 10.47021 31491 ft 470 kts 137°
2026-05-08 05:56 48.77263 10.50631 31811 ft 470 kts 136°
2026-05-08 05:56 48.75056 10.54278 32133 ft 470 kts 135°
2026-05-08 05:56 48.72856 10.57930 32459 ft 469 kts 135°
2026-05-08 05:56 48.70648 10.61556 32785 ft 468 kts 136°
2026-05-08 05:57 48.68423 10.65151 33096 ft 468 kts 136°
2026-05-08 05:57 48.66181 10.68718 33427 ft 467 kts 137°
2026-05-08 05:57 48.63936 10.72261 33749 ft 466 kts 137°
2026-05-08 05:57 48.61689 10.75793 34066 ft 466 kts 137°
2026-05-08 05:58 48.59445 10.79321 34336 ft 465 kts 137°
2026-05-08 05:58 48.57211 10.82850 34594 ft 465 kts 137°
2026-05-08 05:58 48.54992 10.86385 34844 ft 464 kts 136°
2026-05-08 05:58 48.52777 10.89935 35048 ft 465 kts 136°
2026-05-08 05:59 48.50568 10.93479 35106 ft 462 kts 136°
2026-05-08 05:59 48.46161 11.00491 35112 ft 459 kts 137°
2026-05-08 06:00 48.41755 11.07359 35112 ft 459 kts 137°
2026-05-08 06:00 48.37304 11.14234 35105 ft 458 kts 137°
2026-05-08 06:01 48.32863 11.21107 35097 ft 458 kts 137°
2026-05-08 06:01 48.28403 11.28000 35083 ft 464 kts 137°
2026-05-08 06:02 48.24515 11.35897 35083 ft 479 kts 123°
2026-05-08 06:02 48.21177 11.44578 35081 ft 481 kts 123°
2026-05-08 06:03 48.17829 11.53251 35079 ft 481 kts 123°
2026-05-08 06:03 48.14468 11.61912 35084 ft 481 kts 123°
2026-05-08 06:04 48.11101 11.70556 35087 ft 481 kts 123°
2026-05-08 06:04 48.07722 11.79189 35086 ft 481 kts 123°
2026-05-08 06:05 48.04357 11.87755 35091 ft 481 kts 123°
2026-05-08 06:05 48.00960 11.96384 35082 ft 482 kts 123°
2026-05-08 06:06 47.97562 12.04999 35081 ft 482 kts 123°
2026-05-08 06:06 47.94065 12.13503 35077 ft 479 kts 130°
2026-05-08 06:07 47.89431 12.20446 35075 ft 471 kts 144°
2026-05-08 06:07 47.84406 12.26717 35076 ft 471 kts 143°
2026-05-08 06:08 47.79397 12.33011 35072 ft 471 kts 143°
2026-05-08 06:08 47.74375 12.39292 35072 ft 471 kts 144°
2026-05-08 06:09 47.69380 12.45496 35071 ft 471 kts 144°
2026-05-08 06:09 47.65163 12.50725 35074 ft 472 kts 144°
2026-05-08 06:10 47.59383 12.57796 35081 ft 472 kts 145°
2026-05-08 06:10 47.54245 12.63819 35078 ft 471 kts 146°
2026-05-08 06:11 47.49086 12.69811 35073 ft 471 kts 146°
2026-05-08 06:11 47.43935 12.75818 35073 ft 472 kts 146°
2026-05-08 06:12 47.39666 12.80823 35067 ft 472 kts 146°
2026-05-08 06:12 47.34525 12.86840 35071 ft 472 kts 146°
2026-05-08 06:13 47.28537 12.93816 35069 ft 472 kts 147°
2026-05-08 06:13 47.24219 12.98825 35071 ft 472 kts 147°
2026-05-08 06:14 47.19054 13.04798 35065 ft 472 kts 147°
2026-05-08 06:14 47.13878 13.10765 35075 ft 473 kts 147°
2026-05-08 06:15 47.08733 13.16689 35080 ft 474 kts 147°
2026-05-08 06:15 47.03539 13.22652 35074 ft 474 kts 147°
2026-05-08 06:16 46.98347 13.28608 35084 ft 474 kts 147°
2026-05-08 06:16 46.93144 13.34555 35089 ft 474 kts 147°
2026-05-08 06:17 46.85330 13.43456 35078 ft 474 kts 148°
2026-05-08 06:17 46.80119 13.49370 35085 ft 475 kts 148°
2026-05-08 06:18 46.74901 13.55279 35075 ft 475 kts 148°
2026-05-08 06:18 46.69671 13.61197 35072 ft 476 kts 148°
2026-05-08 06:19 46.64474 13.67066 35079 ft 476 kts 148°
2026-05-08 06:19 46.59232 13.72962 35084 ft 476 kts 148°
2026-05-08 06:20 46.53978 13.78848 35089 ft 477 kts 148°
2026-05-08 06:20 46.48730 13.84720 35091 ft 477 kts 149°
2026-05-08 06:21 46.43474 13.90589 35092 ft 476 kts 149°
2026-05-08 06:21 46.38222 13.96442 35092 ft 476 kts 149°
2026-05-08 06:22 46.32966 14.02270 35087 ft 476 kts 149°
2026-05-08 06:22 46.27704 14.08093 35085 ft 476 kts 149°
2026-05-08 06:23 46.22450 14.13913 35086 ft 476 kts 149°
2026-05-08 06:23 46.17186 14.19722 35090 ft 476 kts 149°
2026-05-08 06:24 46.11927 14.25505 35091 ft 475 kts 149°
2026-05-08 06:24 46.06662 14.31272 35091 ft 475 kts 149°
2026-05-08 06:25 46.01405 14.37016 35090 ft 475 kts 149°
2026-05-08 06:25 45.96173 14.42726 35093 ft 475 kts 149°
2026-05-08 06:26 45.90909 14.48459 35094 ft 475 kts 149°
2026-05-08 06:26 45.85643 14.54178 35099 ft 475 kts 149°
2026-05-08 06:27 45.80381 14.59885 35096 ft 475 kts 149°
2026-05-08 06:27 45.75111 14.65591 35092 ft 475 kts 149°
2026-05-08 06:28 45.69839 14.71267 35098 ft 474 kts 149°
2026-05-08 06:28 45.64569 14.76931 35100 ft 474 kts 149°
2026-05-08 06:29 45.59297 14.82583 35093 ft 473 kts 149°
2026-05-08 06:29 45.54033 14.88224 35104 ft 473 kts 149°
2026-05-08 06:30 45.48775 14.93842 35104 ft 472 kts 149°
2026-05-08 06:30 45.43522 14.99433 35101 ft 471 kts 149°
2026-05-08 06:31 45.38279 15.05014 35097 ft 470 kts 148°
2026-05-08 06:31 45.33043 15.10564 35094 ft 469 kts 149°
2026-05-08 06:32 45.27805 15.16090 35090 ft 469 kts 148°
2026-05-08 06:32 45.22609 15.21582 35085 ft 469 kts 148°
2026-05-08 06:33 45.17385 15.27091 35077 ft 468 kts 148°
2026-05-08 06:33 45.12147 15.32595 35073 ft 469 kts 148°
2026-05-08 06:34 45.06906 15.38085 35070 ft 469 kts 148°
2026-05-08 06:34 45.01658 15.43572 35066 ft 469 kts 148°
2026-05-08 06:35 44.96406 15.49054 35066 ft 470 kts 148°
2026-05-08 06:35 44.91140 15.54519 35070 ft 470 kts 148°
2026-05-08 06:36 44.85865 15.59980 35066 ft 470 kts 148°
2026-05-08 06:36 44.80591 15.65448 35062 ft 471 kts 148°
2026-05-08 06:37 44.75321 15.70912 35065 ft 471 kts 148°
2026-05-08 06:37 44.70047 15.76355 35065 ft 471 kts 148°
2026-05-08 06:38 44.64763 15.81794 35067 ft 471 kts 149°
2026-05-08 06:38 44.59512 15.87179 35066 ft 471 kts 149°
2026-05-08 06:39 44.54225 15.92591 35068 ft 471 kts 149°
2026-05-08 06:39 44.48934 15.97989 35064 ft 470 kts 149°
2026-05-08 06:40 44.43645 16.03371 35065 ft 470 kts 149°
2026-05-08 06:40 44.38367 16.08743 35061 ft 469 kts 149°
2026-05-08 06:41 44.33088 16.14101 35064 ft 469 kts 149°
2026-05-08 06:41 44.27817 16.19437 35062 ft 468 kts 149°
2026-05-08 06:42 44.22549 16.24763 35062 ft 467 kts 149°
2026-05-08 06:42 44.17283 16.30075 35060 ft 467 kts 149°
2026-05-08 06:43 44.12017 16.35363 35061 ft 466 kts 149°
2026-05-08 06:43 44.06758 16.40628 35053 ft 466 kts 148°
2026-05-08 06:44 44.01542 16.45865 35054 ft 466 kts 148°
2026-05-08 06:44 43.96291 16.51121 35056 ft 465 kts 148°
2026-05-08 06:45 43.91034 16.56359 35055 ft 465 kts 148°
2026-05-08 06:45 43.85782 16.61567 35057 ft 464 kts 149°
2026-05-08 06:46 43.80525 16.66776 35055 ft 464 kts 148°
2026-05-08 06:46 43.75282 16.71970 35045 ft 463 kts 148°
2026-05-08 06:47 43.70039 16.77151 35049 ft 463 kts 148°
2026-05-08 06:47 43.64791 16.82322 35046 ft 463 kts 148°
2026-05-08 06:48 43.59553 16.87477 35051 ft 462 kts 148°
2026-05-08 06:48 43.54321 16.92615 35042 ft 462 kts 148°
2026-05-08 06:49 43.49080 16.97749 35029 ft 462 kts 148°
2026-05-08 06:49 43.43874 17.02838 35037 ft 462 kts 148°
2026-05-08 06:50 43.38635 17.07948 35028 ft 462 kts 148°
2026-05-08 06:50 43.33388 17.13053 35027 ft 461 kts 148°
2026-05-08 06:51 43.28146 17.18131 35035 ft 461 kts 148°
2026-05-08 06:51 43.22903 17.23205 35042 ft 461 kts 149°
2026-05-08 06:52 43.17666 17.28263 35044 ft 460 kts 149°
2026-05-08 06:52 43.12436 17.33305 35044 ft 460 kts 149°
2026-05-08 06:53 43.07206 17.38343 35042 ft 459 kts 149°
2026-05-08 06:53 43.02021 17.43338 35038 ft 458 kts 149°
2026-05-08 06:54 42.96805 17.48338 35041 ft 458 kts 149°
2026-05-08 06:54 42.91591 17.53314 35039 ft 457 kts 149°
2026-05-08 06:55 42.86661 17.58833 35042 ft 459 kts 143°
2026-05-08 06:55 42.81814 17.64502 35038 ft 459 kts 143°
2026-05-08 06:56 42.76968 17.70146 35037 ft 458 kts 143°
2026-05-08 06:56 42.72126 17.75772 35030 ft 457 kts 143°
2026-05-08 06:57 42.67287 17.81382 35031 ft 457 kts 143°
2026-05-08 06:57 42.62447 17.86982 35025 ft 457 kts 143°
2026-05-08 06:58 42.57635 17.92532 35023 ft 457 kts 143°
2026-05-08 06:58 42.52790 17.98115 35017 ft 457 kts 143°
2026-05-08 06:59 42.47936 18.03693 35013 ft 458 kts 143°
2026-05-08 06:59 42.43079 18.09274 35012 ft 458 kts 143°
2026-05-08 07:00 42.38215 18.14848 35012 ft 459 kts 143°
2026-05-08 07:00 42.33333 18.20417 35009 ft 459 kts 143°
2026-05-08 07:01 42.28456 18.25971 35007 ft 459 kts 143°
2026-05-08 07:01 42.23578 18.31529 35005 ft 459 kts 143°
2026-05-08 07:02 42.18701 18.37071 35003 ft 458 kts 143°
2026-05-08 07:02 42.13852 18.42560 35003 ft 458 kts 144°
2026-05-08 07:03 42.08973 18.48071 35012 ft 458 kts 144°
2026-05-08 07:03 42.04089 18.53578 35047 ft 458 kts 144°
2026-05-08 07:04 41.99208 18.59079 35026 ft 457 kts 144°
2026-05-08 07:04 41.94333 18.64557 35037 ft 457 kts 144°
2026-05-08 07:05 41.89345 18.69814 35039 ft 454 kts 148°
2026-05-08 07:05 41.84149 18.74596 35040 ft 451 kts 150°
2026-05-08 07:06 41.81575 18.76898 35024 ft 439 kts 149°
2026-05-08 07:06 41.79066 18.79165 35034 ft 434 kts 149°
2026-05-08 07:06 41.74112 18.83741 35035 ft 432 kts 148°
2026-05-08 07:07 41.69190 18.88343 35038 ft 431 kts 148°
2026-05-08 07:07 41.64303 18.92910 35040 ft 431 kts 148°
2026-05-08 07:08 41.59374 18.97486 35038 ft 432 kts 148°
2026-05-08 07:08 41.54441 19.02060 35031 ft 432 kts 148°
2026-05-08 07:09 41.49491 19.06621 34951 ft 434 kts 148°
2026-05-08 07:09 41.46993 19.08883 34489 ft 432 kts 151°
2026-05-08 07:09 41.44343 19.10718 34015 ft 428 kts 160°
2026-05-08 07:10 41.41556 19.12117 33468 ft 429 kts 161°
2026-05-08 07:10 41.39696 19.13026 33123 ft 429 kts 161°
2026-05-08 07:10 41.36859 19.14409 32592 ft 428 kts 161°
2026-05-08 07:10 41.34100 19.15751 32085 ft 429 kts 161°
2026-05-08 07:11 41.31269 19.17127 31589 ft 435 kts 161°
2026-05-08 07:11 41.28422 19.18509 31088 ft 435 kts 161°
2026-05-08 07:11 41.25578 19.19890 30594 ft 434 kts 161°
2026-05-08 07:11 41.22755 19.21262 30113 ft 432 kts 161°
2026-05-08 07:12 41.19938 19.22630 29542 ft 429 kts 161°
2026-05-08 07:12 41.17146 19.23990 29014 ft 426 kts 161°
2026-05-08 07:12 41.14373 19.25341 28473 ft 423 kts 162°
2026-05-08 07:12 41.11622 19.26683 27942 ft 419 kts 162°
2026-05-08 07:13 41.08895 19.28010 27420 ft 416 kts 162°
2026-05-08 07:13 41.06189 19.29324 26911 ft 413 kts 162°
2026-05-08 07:13 41.03503 19.30620 26411 ft 409 kts 162°
2026-05-08 07:13 41.00838 19.31902 25919 ft 406 kts 163°
2026-05-08 07:14 40.98192 19.33176 25438 ft 403 kts 163°
2026-05-08 07:14 40.95564 19.34438 24962 ft 400 kts 163°
2026-05-08 07:14 40.92959 19.35687 24492 ft 397 kts 163°
2026-05-08 07:14 40.90372 19.36931 24030 ft 394 kts 163°
2026-05-08 07:15 40.87806 19.38169 23570 ft 392 kts 163°
2026-05-08 07:15 40.85251 19.39401 23032 ft 389 kts 163°
2026-05-08 07:15 40.82718 19.40619 22493 ft 386 kts 163°
2026-05-08 07:15 40.80207 19.41822 21971 ft 383 kts 164°
2026-05-08 07:16 40.77712 19.43015 21459 ft 380 kts 164°
2026-05-08 07:16 40.75237 19.44200 20949 ft 378 kts 164°
2026-05-08 07:16 40.72773 19.45381 20461 ft 376 kts 164°
2026-05-08 07:16 40.70314 19.46558 19965 ft 374 kts 164°
2026-05-08 07:17 40.67870 19.47727 19485 ft 373 kts 164°
2026-05-08 07:17 40.65435 19.48890 19001 ft 372 kts 164°
2026-05-08 07:17 40.63009 19.50048 18505 ft 372 kts 164°
2026-05-08 07:17 40.60582 19.51205 17962 ft 368 kts 164°
2026-05-08 07:18 40.58231 19.52324 17440 ft 360 kts 164°
2026-05-08 07:18 40.55904 19.53435 16906 ft 352 kts 164°
2026-05-08 07:18 40.53620 19.54525 16412 ft 345 kts 165°
2026-05-08 07:18 40.51334 19.55103 15910 ft 328 kts 185°
2026-05-08 07:19 40.49121 19.54701 15422 ft 317 kts 194°
2026-05-08 07:19 40.46975 19.54100 14936 ft 313 kts 195°
2026-05-08 07:19 40.44849 19.53487 14461 ft 313 kts 195°
2026-05-08 07:19 40.42726 19.52872 13985 ft 313 kts 195°
2026-05-08 07:20 40.40592 19.52256 13484 ft 314 kts 195°
2026-05-08 07:20 40.38454 19.51633 12958 ft 315 kts 195°
2026-05-08 07:20 40.36308 19.50996 12443 ft 317 kts 195°
2026-05-08 07:20 40.34157 19.50349 11930 ft 317 kts 195°
2026-05-08 07:21 40.32009 19.49694 11436 ft 317 kts 195°
2026-05-08 07:21 40.29863 19.49030 10947 ft 316 kts 195°
2026-05-08 07:21 40.27724 19.48365 10468 ft 316 kts 195°
2026-05-08 07:21 40.25561 19.47704 9984 ft 322 kts 195°
2026-05-08 07:22 40.23382 19.47014 9472 ft 322 kts 195°
2026-05-08 07:22 40.21208 19.46300 8950 ft 321 kts 195°
2026-05-08 07:22 40.19059 19.45576 8434 ft 318 kts 195°
2026-05-08 07:22 40.16918 19.44833 7935 ft 317 kts 195°
2026-05-08 07:23 40.14797 19.44071 7439 ft 315 kts 195°
2026-05-08 07:23 40.12703 19.43299 6951 ft 311 kts 195°
2026-05-08 07:23 40.10667 19.42536 6464 ft 298 kts 195°
2026-05-08 07:23 40.08737 19.41802 5966 ft 288 kts 195°
2026-05-08 07:24 40.06850 19.41071 5461 ft 278 kts 194°
2026-05-08 07:24 40.04983 19.40761 5047 ft 265 kts 172°
2026-05-08 07:24 40.03261 19.41281 4966 ft 244 kts 166°
2026-05-08 07:24 40.01646 19.41893 4946 ft 241 kts 165°
2026-05-08 07:25 40.00051 19.42509 4827 ft 238 kts 165°
2026-05-08 07:25 39.98463 19.43124 4692 ft 238 kts 165°
2026-05-08 07:25 39.95654 19.45224 4445 ft 243 kts 130°
2026-05-08 07:26 39.94931 19.47253 4312 ft 250 kts 116°
2026-05-08 07:26 39.94326 19.49381 4187 ft 250 kts 116°
2026-05-08 07:27 39.93731 19.51509 4057 ft 248 kts 116°
2026-05-08 07:27 39.93139 19.53616 3928 ft 247 kts 116°
2026-05-08 07:27 39.92548 19.55714 3808 ft 246 kts 116°
2026-05-08 07:27 39.91956 19.57799 3701 ft 245 kts 116°
2026-05-08 07:28 39.91366 19.59879 3680 ft 244 kts 116°
2026-05-08 07:28 39.90778 19.61948 3682 ft 244 kts 116°
2026-05-08 07:28 39.90189 19.64021 3684 ft 244 kts 116°
2026-05-08 07:28 39.89599 19.66092 3686 ft 244 kts 116°
2026-05-08 07:29 39.89008 19.68162 3690 ft 244 kts 116°
2026-05-08 07:29 39.88416 19.70239 3690 ft 244 kts 116°
2026-05-08 07:29 39.87824 19.72316 3690 ft 245 kts 116°
2026-05-08 07:29 39.87228 19.74399 3690 ft 246 kts 116°
2026-05-08 07:30 39.86631 19.76487 3496 ft 244 kts 115°
2026-05-08 07:30 39.85993 19.78467 3267 ft 228 kts 123°
2026-05-08 07:30 39.85261 19.80183 3211 ft 205 kts 123°
2026-05-08 07:30 39.84610 19.81719 3208 ft 184 kts 123°
2026-05-08 07:31 39.84009 19.83133 3203 ft 175 kts 124°
2026-05-08 07:31 39.83424 19.84503 3200 ft 172 kts 124°
2026-05-08 07:31 39.82849 19.85847 3197 ft 172 kts 124°
2026-05-08 07:31 39.82269 19.87203 3214 ft 171 kts 124°
2026-05-08 07:32 39.81690 19.88555 3219 ft 173 kts 124°
2026-05-08 07:32 39.81073 19.89887 3213 ft 169 kts 132°
2026-05-08 07:32 39.80163 19.90809 3221 ft 167 kts 154°
2026-05-08 07:32 39.79024 19.91154 3225 ft 171 kts 172°
2026-05-08 07:33 39.77829 19.91300 3225 ft 173 kts 173°
2026-05-08 07:33 39.76647 19.91449 3222 ft 170 kts 173°
2026-05-08 07:33 39.75477 19.91597 3221 ft 168 kts 172°
2026-05-08 07:33 39.74305 19.91676 3120 ft 171 kts 178°
2026-05-08 07:34 39.73133 19.91481 2972 ft 168 kts 185°
2026-05-08 07:34 39.72017 19.91199 2619 ft 159 kts 184°
2026-05-08 07:34 39.70953 19.90961 2291 ft 152 kts 181°
2026-05-08 07:34 39.69913 19.90767 2083 ft 149 kts 180°
2026-05-08 07:35 39.68895 19.90607 1897 ft 147 kts 179°
2026-05-08 07:35 39.67877 19.90461 1710 ft 148 kts 178°
2026-05-08 07:35 39.66854 19.90331 1366 ft 148 kts 178°
2026-05-08 07:35 39.65837 19.90200 1118 ft 147 kts 179°
2026-05-08 07:36 39.64811 19.90074 932 ft 147 kts 174°
2026-05-08 07:36 39.63806 19.90201 703 ft 143 kts 166°
2026-05-08 07:36 39.62843 19.90498 483 ft 143 kts 165°
2026-05-08 07:36 39.61852 19.90766 308 ft 145 kts 166°
2026-05-08 07:37 39.60888 19.91033 63 ft 139 kts 167°
2026-05-08 07:37 39.60010 19.91261 21 ft 104 kts 168°
2026-05-08 07:37 39.59582 19.91373 19 ft 36 kts 168°
2026-05-08 07:37 39.59352 19.91430 17 ft 31 kts 169°
2026-05-08 07:38 39.59214 19.91456 18 ft 11 kts 190°
2026-05-08 07:38 39.59163 19.91460 18 ft 5 kts 120°
2026-05-08 07:38 39.59182 19.91486 17 ft 6 kts
2026-05-08 07:38 39.59266 19.91463 18 ft 17 kts 348°
2026-05-08 07:39 39.59410 19.91425 17 ft 25 kts 348°
2026-05-08 07:39 39.59590 19.91374 19 ft 26 kts 348°
2026-05-08 07:39 39.59754 19.91331 21 ft 23 kts 348°
2026-05-08 07:39 39.59918 19.91287 22 ft 26 kts 348°
2026-05-08 07:40 39.60116 19.91232 21 ft 31 kts 347°
2026-05-08 07:40 39.60349 19.91171 20 ft 37 kts 348°
2026-05-08 07:40 39.60556 19.91179 18 ft 20 kts 30°
2026-05-08 07:40 39.60664 19.91222 18 ft 11 kts 353°
2026-05-08 07:41 39.60694 19.91272 18 ft 10 kts 79°
2026-05-08 07:41 39.60705 19.91343 18 ft 5 kts 78°
2026-05-08 07:41 39.60706 19.91353 18 ft 0 kts 79°